This is the latest recevied weather packets stored in our database for station/object WO5CID. If no packets are shown the sender has not sent any weather packets the latest 10 day(s).
| Time | Temp. | Humidity | Pressure | Rain* | Wind** | Luminosity | Snow |
|---|---|---|---|---|---|---|---|
| 1777671207 | 33.33° C | 38% | 1008.6 hPa | 0 mm | - | 154 W/m² | - |
| 1777670903 | 33.33° C | 37% | 1008.7 hPa | 0 mm | - | 403 W/m² | - |
| 1777670600 | 33.33° C | 37% | 1008.5 hPa | 0 mm | - | 394 W/m² | - |
| 1777670296 | 33.33° C | 38% | 1008.4 hPa | 0 mm | - | 435 W/m² | - |
| 1777669994 | 32.78° C | 39% | 1008.6 hPa | 0 mm | - | 496 W/m² | - |
| 1777669690 | 32.78° C | 37% | 1008.7 hPa | 0 mm | - | 526 W/m² | - |
| 1777669388 | 32.78° C | 37% | 1008.8 hPa | 0 mm | - | 455 W/m² | - |
| 1777669084 | 32.78° C | 37% | 1008.6 hPa | 0 mm | - | 217 W/m² | - |
| 1777668781 | 32.22° C | 38% | 1008.5 hPa | 0 mm | - | 520 W/m² | - |
| 1777668477 | 32.78° C | 38% | 1008.7 hPa | 0 mm | - | 249 W/m² | - |
| 1777668174 | 32.22° C | 39% | 1008.6 hPa | 0 mm | - | 448 W/m² | - |
| 1777667870 | 32.22° C | 39% | 1008.7 hPa | 0 mm | - | 464 W/m² | - |
| 1777667568 | 32.78° C | 39% | 1008.7 hPa | 0 mm | - | 360 W/m² | - |
| 1777667265 | 32.22° C | 39% | 1008.7 hPa | 0 mm | - | 393 W/m² | - |
| 1777666962 | 31.67° C | 39% | 1008.6 hPa | 0 mm | - | 472 W/m² | - |
| 1777666658 | 31.67° C | 40% | 1008.8 hPa | 0 mm | - | 348 W/m² | - |
| 1777666355 | 31.67° C | 40% | 1008.8 hPa | 0 mm | - | 346 W/m² | - |
| 1777666052 | 32.22° C | 38% | 1009.2 hPa | 0 mm | - | 298 W/m² | - |
| 1777665749 | 32.22° C | 39% | 1009 hPa | 0 mm | - | 263 W/m² | - |
| 1777665446 | 32.78° C | 40% | 1009.1 hPa | 0 mm | - | 291 W/m² | - |
| 1777665142 | 32.78° C | 37% | 1009.2 hPa | 0 mm | - | 424 W/m² | - |
| 1777664839 | 32.78° C | 39% | 1009.1 hPa | 0 mm | - | 497 W/m² | - |
| 1777664534 | 32.78° C | 38% | 1009.1 hPa | 0 mm | - | 361 W/m² | - |
| 1777664231 | 32.78° C | 38% | 1009.3 hPa | 0 mm | - | 571 W/m² | - |
| 1777663930 | 33.33° C | 38% | 1009.2 hPa | 0 mm | - | 718 W/m² | - |
* Rain latest hour (hover to see other rain measurements)
** Current wind speed in m/s (hover to see current wind gust speed)